QPF
0.01 0.01 0.01 0.02 0.01 0.01 0.02 0.03 0.03 0.03 0.03 0.03 0.02 0.01 0.01 0.01 0.01 0.01 0.00 0.00 0.00 0.00 0.00 0.00 0.00 0.01 0.01 0.01 0.00 0.00 0.00 0.00 0.00 0.00 0.00 0.00 0.01 0.01 0.01 0.02 0.04 0.03 0.04 0.03
0.01 0.00 0.01 0.01 0.01 0.01 0.02 0.02 0.02 0.04 0.05 0.03 0.01 0.01 0.01 0.01 0.01 0.01 0.01 0.01 0.01 0.01 0.01 0.01 0.01 0.01 0.01 0.01 0.00 0.00 0.01 0.00 0.00 0.00 0.00 0.01 0.01 0.01 0.01 0.02 0.03 0.03 0.03 0.02
0.02 0.01 0.02 0.02 0.02 0.02 0.02 0.03 0.03 0.04 0.05 0.04 0.03 0.02 0.01 0.01 0.01 0.01 0.01 0.01 0.01 0.01 0.01 0.01 0.01 0.01 0.02 0.01 0.01 0.01 0.01 0.01 0.01 0.01 0.01 0.01 0.01 0.01 0.01 0.03 0.03 0.02 0.02 0.02
0.03 0.03 0.03 0.03 0.03 0.02 0.02 0.03 0.03 0.03 0.04 0.03 0.03 0.03 0.02 0.01 0.00 0.00 0.00 0.01 0.01 0.01 0.01 0.01 0.01 0.01 0.02 0.02 0.01 0.01 0.01 0.01 0.01 0.01 0.01 0.01 0.01 0.01 0.02 0.04 0.02 0.01 0.01 0.01
0.04 0.03 0.02 0.02 0.02 0.02 0.02 0.03 0.03 0.03 0.04 0.04 0.03 0.04 0.04 0.01 0.00 0.00 0.00 0.00 0.00 0.00 0.00 0.00 0.00 0.00 0.01 0.01 0.01 0.01 0.01 0.01 0.00 0.01 0.01 0.01 0.01 0.01 0.02 0.03 0.02 0.01 0.01 0.01
0.03 0.03 0.02 0.02 0.01 0.01 0.01 0.03 0.03 0.02 0.03 0.03 0.02 0.03 0.04 0.02 0.01 0.01 0.01 0.00 0.00 0.00 0.00 0.00 0.00 0.00 0.00 0.01 0.01 0.01 0.01 0.00 0.01 0.01 0.01 0.01 0.01 0.01 0.02 0.02 0.01 0.01 0.01 0.01
0.02 0.02 0.02 0.02 0.01 0.01 0.02 0.03 0.02 0.02 0.02 0.03 0.03 0.02 0.02 0.01 0.01 0.01 0.01 0.01 0.01 0.00 0.00 0.00 0.00 0.00 0.01 0.01 0.01 0.01 0.01 0.01 0.01 0.01 0.01 0.01 0.01 0.01 0.01 0.01 0.01 0.01 0.01 0.01
0.02 0.02 0.02 0.01 0.01 0.01 0.02 0.02 0.01 0.02 0.02 0.02 0.02 0.02 0.02 0.02 0.02 0.02 0.02 0.02 0.01 0.01 0.01 0.00 0.00 0.00 0.01 0.01 0.01 0.01 0.01 0.01 0.01 0.01 0.01 0.01 0.01 0.01 0.01 0.01 0.01 0.01 0.01 0.01
0.02 0.04 0.04 0.02 0.01 0.02 0.01 0.01 0.01 0.02 0.02 0.02 0.02 0.02 0.02 0.01 0.01 0.01 0.01 0.01 0.01 0.01 0.01 0.01 0.01 0.01 0.01 0.01 0.01 0.01 0.01 0.01 0.02 0.02 0.01 0.01 0.01 0.01 0.01 0.01 0.01 0.01 0.01 0.01
0.02 0.03 0.02 0.01 0.01 0.01 0.01 0.01 0.01 0.01 0.01 0.01 0.01 0.01 0.01 0.01 0.01 0.01 0.00 0.00 0.01 0.01 0.01 0.01 0.00 0.00 0.00 0.01 0.01 0.01 0.01 0.01 0.02 0.02 0.01 0.01 0.01 0.01 0.01 0.01 0.01 0.01 0.01 0.01
0.02 0.02 0.02 0.01 0.01 0.01 0.01 0.01 0.01 0.01 0.01 0.01 0.01 0.01 0.01 0.01 0.01 0.01 0.01 0.01 0.01 0.01 0.01 0.00 0.00 0.00 0.00 0.01 0.01 0.01 0.01 0.01 0.02 0.02 0.02 0.02 0.02 0.02 0.02 0.01 0.01 0.02 0.02 0.02
0.02 0.02 0.01 0.01 0.01 0.01 0.01 0.01 0.01 0.01 0.01 0.01 0.02 0.02 0.02 0.02 0.01 0.01 0.01 0.01 0.01 0.01 0.01 0.01 0.01 0.01 0.01 0.01 0.01 0.01 0.02 0.02 0.02 0.02 0.03 0.02 0.02 0.03 0.03 0.02 0.02 0.02 0.03 0.03
0.01 0.01 0.01 0.01 0.00 0.00 0.01 0.01 0.01 0.01 0.02 0.02 0.02 0.02 0.02 0.02 0.02 0.02 0.02 0.02 0.02 0.01 0.01 0.01 0.01 0.01 0.01 0.01 0.01 0.01 0.01 0.02 0.02 0.02 0.03 0.03 0.02 0.02 0.02 0.02 0.02 0.02 0.02 0.02
0.01 0.01 0.01 0.01 0.01 0.01 0.01 0.01 0.01 0.01 0.01 0.01 0.02 0.02 0.02 0.02 0.02 0.02 0.02 0.02 0.01 0.01 0.01 0.01 0.01 0.01 0.01 0.01 0.01 0.01 0.01 0.01 0.02 0.02 0.02 0.03 0.03 0.03 0.02 0.02 0.02 0.02 0.02 0.02
0.01 0.01 0.01 0.01 0.00 0.00 0.01 0.01 0.01 0.01 0.01 0.01 0.01 0.02 0.02 0.02 0.02 0.01 0.01 0.01 0.01 0.01 0.01 0.01 0.01 0.01 0.01 0.01 0.01 0.01 0.01 0.01 0.01 0.02 0.02 0.02 0.02 0.03 0.03 0.03 0.03 0.02 0.02 0.02
0.01 0.00 0.00 0.00 0.00 0.01 0.01 0.01 0.01 0.01 0.01 0.01 0.01 0.02 0.02 0.02 0.02 0.01 0.01 0.01 0.01 0.01 0.01 0.01 0.01 0.01 0.01 0.01 0.01 0.01 0.01 0.01 0.01 0.02 0.02 0.02 0.02 0.02 0.02 0.03 0.03 0.03 0.03 0.02
0.01 0.01 0.00 0.01 0.01 0.01 0.01 0.01 0.01 0.01 0.01 0.01 0.01 0.01 0.02 0.02 0.02 0.02 0.01 0.01 0.01 0.01 0.01 0.01 0.01 0.01 0.01 0.01 0.02 0.02 0.01 0.01 0.02 0.02 0.02 0.02 0.02 0.03 0.03 0.03 0.03 0.02 0.02 0.02
0.01 0.01 0.01 0.01 0.01 0.01 0.01 0.01 0.01 0.01 0.01 0.01 0.01 0.01 0.01 0.01 0.02 0.02 0.02 0.01 0.01 0.01 0.01 0.01 0.01 0.01 0.01 0.02 0.02 0.02 0.02 0.02 0.02 0.02 0.02 0.03 0.03 0.03 0.03 0.03 0.03 0.03 0.02 0.02
0.01 0.01 0.00 0.00 0.00 0.00 0.01 0.01 0.01 0.01 0.01 0.01 0.01 0.01 0.01 0.01 0.01 0.01 0.01 0.01 0.01 0.01 0.01 0.01 0.02 0.02 0.02 0.02 0.02 0.02 0.02 0.02 0.02 0.02 0.03 0.03 0.03 0.03 0.03 0.03 0.03 0.03 0.03 0.02
0.01 0.00 0.00 0.00 0.00 0.00 0.00 0.01 0.01 0.01 0.01 0.01 0.01 0.01 0.01 0.01 0.01 0.01 0.01 0.01 0.02 0.02 0.02 0.02 0.02 0.02 0.02 0.02 0.02 0.03 0.03 0.03 0.02 0.02 0.02 0.03 0.03 0.02 0.02 0.02 0.03 0.03 0.02 0.02
0.01 0.00 0.00 0.00 0.00 0.00 0.00 0.00 0.01 0.01 0.01 0.01 0.02 0.02 0.02 0.01 0.01 0.01 0.02 0.02 0.02 0.02 0.02 0.02 0.02 0.02 0.02 0.02 0.03 0.03 0.03 0.03 0.03 0.03 0.03 0.03 0.03 0.03 0.02 0.02 0.02 0.02 0.02 0.02
0.01 0.01 0.01 0.01 0.01 0.01 0.01 0.01 0.01 0.01 0.01 0.01 0.01 0.01 0.02 0.02 0.02 0.02 0.02 0.02 0.02 0.02 0.02 0.02 0.02 0.02 0.03 0.02 0.02 0.02 0.03 0.03 0.03 0.03 0.03 0.04 0.04 0.03 0.02 0.02 0.02 0.02 0.02 0.02
0.01 0.01 0.01 0.01 0.01 0.01 0.01 0.01 0.01 0.01 0.01 0.01 0.01 0.02 0.02 0.02 0.02 0.02 0.02 0.02 0.02 0.02 0.02 0.03 0.03 0.03 0.03 0.02 0.03 0.03 0.03 0.03 0.03 0.03 0.03 0.04 0.04 0.03 0.02 0.02 0.02 0.02 0.02 0.02
0.01 0.01 0.01 0.01 0.01 0.01 0.01 0.01 0.01 0.01 0.01 0.02 0.02 0.02 0.02 0.02 0.02 0.02 0.02 0.02 0.02 0.02 0.02 0.03 0.03 0.03 0.03 0.03 0.03 0.03 0.03 0.03 0.03 0.03 0.04 0.04 0.03 0.02 0.02 0.02 0.02 0.02 0.01 0.01
0.01 0.01 0.01 0.01 0.01 0.01 0.01 0.01 0.01 0.01 0.01 0.02 0.02 0.02 0.02 0.02 0.03 0.02 0.02 0.02 0.02 0.02 0.02 0.03 0.03 0.03 0.03 0.03 0.03 0.03 0.03 0.03 0.03 0.04 0.04 0.04 0.03 0.02 0.02 0.02 0.02 0.02 0.02 0.01
0.01 0.01 0.01 0.01 0.01 0.01 0.01 0.01 0.01 0.01 0.01 0.01 0.02 0.02 0.02 0.02 0.02 0.02 0.02 0.02 0.02 0.02 0.03 0.03 0.03 0.03 0.02 0.02 0.02 0.03 0.03 0.03 0.03 0.03 0.04 0.04 0.03 0.02 0.02 0.02 0.02 0.02 0.01 0.01
0.01 0.01 0.01 0.01 0.01 0.01 0.01 0.01 0.01 0.01 0.02 0.02 0.02 0.02 0.02 0.01 0.01 0.01 0.02 0.02 0.02 0.02 0.03 0.03 0.03 0.02 0.02 0.02 0.02 0.02 0.02 0.02 0.02 0.03 0.03 0.03 0.02 0.02 0.02 0.02 0.02 0.02 0.02 0.02
MSLP
1011.56 1011.38 1011.17 1010.99 1010.88 1010.88 1011.03 1011.34 1011.80 1012.39 1013.07 1013.80 1014.51 1015.15 1015.68 1016.07 1016.29 1016.36 1016.29 1016.11 1015.87 1015.60 1015.34 1015.10 1014.90 1014.74 1014.58 1014.41 1014.22 1013.98 1013.70 1013.39 1013.09 1012.82 1012.63 1012.55 1012.60 1012.79 1013.11 1013.53 1014.02 1014.55 1015.06 1015.54
1013.47 1013.25 1012.94 1012.58 1012.26 1012.02 1011.94 1012.03 1012.32 1012.80 1013.43 1014.16 1014.92 1015.65 1016.28 1016.76 1017.07 1017.21 1017.18 1017.02 1016.78 1016.50 1016.21 1015.94 1015.71 1015.49 1015.29 1015.07 1014.81 1014.50 1014.13 1013.74 1013.33 1012.96 1012.67 1012.48 1012.43 1012.53 1012.76 1013.11 1013.53 1014.00 1014.48 1014.95
1015.25 1015.00 1014.60 1014.11 1013.60 1013.17 1012.88 1012.79 1012.92 1013.28 1013.84 1014.55 1015.33 1016.11 1016.80 1017.36 1017.75 1017.95 1017.98 1017.86 1017.64 1017.36 1017.07 1016.79 1016.53 1016.29 1016.06 1015.79 1015.48 1015.12 1014.69 1014.23 1013.75 1013.30 1012.92 1012.64 1012.50 1012.51 1012.64 1012.90 1013.25 1013.66 1014.08 1014.51
1016.68 1016.40 1015.94 1015.36 1014.73 1014.16 1013.73 1013.50 1013.51 1013.77 1014.26 1014.93 1015.70 1016.50 1017.24 1017.85 1018.30 1018.56 1018.65 1018.58 1018.40 1018.16 1017.89 1017.62 1017.36 1017.11 1016.85 1016.56 1016.22 1015.82 1015.35 1014.84 1014.31 1013.81 1013.37 1013.03 1012.81 1012.74 1012.80 1012.97 1013.23 1013.56 1013.92 1014.29
1017.59 1017.28 1016.79 1016.17 1015.49 1014.87 1014.36 1014.06 1014.01 1014.21 1014.65 1015.28 1016.03 1016.82 1017.57 1018.21 1018.70 1019.02 1019.16 1019.16 1019.04 1018.84 1018.62 1018.38 1018.14 1017.89 1017.63 1017.33 1016.97 1016.54 1016.05 1015.52 1014.97 1014.44 1013.97 1013.59 1013.33 1013.20 1013.19 1013.29 1013.47 1013.72 1014.00 1014.30
1017.90 1017.57 1017.08 1016.47 1015.82 1015.21 1014.73 1014.44 1014.38 1014.56 1014.98 1015.58 1016.30 1017.07 1017.81 1018.45 1018.96 1019.30 1019.50 1019.55 1019.49 1019.36 1019.19 1018.99 1018.79 1018.56 1018.31 1018.01 1017.65 1017.22 1016.74 1016.20 1015.66 1015.13 1014.66 1014.27 1013.99 1013.82 1013.76 1013.80 1013.91 1014.08 1014.28 1014.50
1017.63 1017.29 1016.83 1016.28 1015.72 1015.21 1014.83 1014.62 1014.62 1014.84 1015.26 1015.84 1016.53 1017.26 1017.96 1018.57 1019.07 1019.42 1019.64 1019.74 1019.74 1019.68 1019.57 1019.43 1019.27 1019.08 1018.85 1018.57 1018.22 1017.81 1017.34 1016.83 1016.31 1015.80 1015.35 1014.98 1014.70 1014.52 1014.43 1014.42 1014.47 1014.56 1014.68 1014.81
1016.90 1016.56 1016.15 1015.71 1015.29 1014.95 1014.72 1014.66 1014.77 1015.06 1015.52 1016.10 1016.75 1017.42 1018.06 1018.62 1019.08 1019.42 1019.64 1019.77 1019.82 1019.81 1019.76 1019.67 1019.56 1019.41 1019.22 1018.96 1018.64 1018.26 1017.82 1017.34 1016.87 1016.41 1015.99 1015.65 1015.39 1015.21 1015.10 1015.05 1015.05 1015.07 1015.10 1015.14
1015.92 1015.59 1015.26 1014.95 1014.71 1014.56 1014.54 1014.65 1014.91 1015.30 1015.81 1016.39 1017.01 1017.61 1018.17 1018.65 1019.05 1019.35 1019.55 1019.69 1019.76 1019.79 1019.79 1019.76 1019.69 1019.58 1019.42 1019.20 1018.91 1018.56 1018.16 1017.74 1017.30 1016.90 1016.53 1016.23 1015.99 1015.81 1015.69 1015.61 1015.55 1015.50 1015.45 1015.41
1014.92 1014.62 1014.38 1014.22 1014.17 1014.23 1014.42 1014.72 1015.13 1015.63 1016.19 1016.77 1017.34 1017.87 1018.34 1018.74 1019.05 1019.28 1019.45 1019.57 1019.65 1019.70 1019.73 1019.73 1019.70 1019.63 1019.50 1019.30 1019.05 1018.74 1018.38 1018.00 1017.62 1017.26 1016.94 1016.67 1016.45 1016.28 1016.14 1016.02 1015.91 1015.79 1015.67 1015.54
1014.16 1013.90 1013.77 1013.76 1013.88 1014.14 1014.51 1014.98 1015.52 1016.11 1016.70 1017.27 1017.79 1018.24 1018.62 1018.91 1019.13 1019.29 1019.40 1019.49 1019.55 1019.60 1019.64 1019.66 1019.65 1019.59 1019.49 1019.32 1019.09 1018.81 1018.49 1018.15 1017.82 1017.50 1017.22 1016.97 1016.76 1016.59 1016.42 1016.27 1016.10 1015.92 1015.73 1015.52
1013.85 1013.66 1013.62 1013.74 1014.01 1014.41 1014.92 1015.51 1016.14 1016.77 1017.37 1017.91 1018.36 1018.73 1019.00 1019.20 1019.32 1019.40 1019.44 1019.47 1019.51 1019.53 1019.56 1019.58 1019.56 1019.51 1019.41 1019.25 1019.04 1018.79 1018.50 1018.20 1017.90 1017.62 1017.36 1017.14 1016.93 1016.74 1016.56 1016.36 1016.14 1015.90 1015.65 1015.39
1014.10 1014.00 1014.04 1014.25 1014.61 1015.10 1015.68 1016.32 1016.97 1017.60 1018.16 1018.64 1019.02 1019.29 1019.46 1019.56 1019.59 1019.58 1019.55 1019.53 1019.51 1019.50 1019.49 1019.48 1019.44 1019.38 1019.27 1019.11 1018.91 1018.67 1018.41 1018.14 1017.88 1017.62 1017.39 1017.18 1016.98 1016.78 1016.57 1016.33 1016.08 1015.79 1015.49 1015.18
1014.94 1014.91 1015.02 1015.28 1015.67 1016.17 1016.74 1017.35 1017.96 1018.53 1019.01 1019.40 1019.68 1019.85 1019.93 1019.92 1019.86 1019.77 1019.68 1019.58 1019.50 1019.44 1019.38 1019.32 1019.25 1019.16 1019.03 1018.86 1018.66 1018.44 1018.21 1017.97 1017.74 1017.52 1017.31 1017.12 1016.92 1016.72 1016.49 1016.23 1015.95 1015.63 1015.30 1014.96
1016.26 1016.30 1016.45 1016.70 1017.06 1017.50 1018.00 1018.51 1019.01 1019.45 1019.82 1020.10 1020.26 1020.33 1020.30 1020.21 1020.07 1019.90 1019.73 1019.57 1019.42 1019.29 1019.17 1019.06 1018.94 1018.80 1018.65 1018.47 1018.27 1018.07 1017.86 1017.66 1017.46 1017.28 1017.11 1016.95 1016.77 1016.58 1016.35 1016.09 1015.79 1015.46 1015.12 1014.77
1017.91 1017.99 1018.13 1018.34 1018.60 1018.92 1019.28 1019.64 1019.97 1020.26 1020.48 1020.62 1020.66 1020.62 1020.50 1020.32 1020.11 1019.87 1019.63 1019.40 1019.18 1018.98 1018.80 1018.62 1018.45 1018.27 1018.09 1017.90 1017.71 1017.53 1017.35 1017.19 1017.05 1016.92 1016.80 1016.68 1016.53 1016.36 1016.16 1015.91 1015.62 1015.30 1014.96 1014.62
1019.64 1019.74 1019.84 1019.95 1020.08 1020.24 1020.41 1020.58 1020.72 1020.83 1020.89 1020.88 1020.81 1020.66 1020.46 1020.21 1019.93 1019.63 1019.33 1019.03 1018.75 1018.49 1018.24 1018.00 1017.77 1017.56 1017.35 1017.16 1016.98 1016.82 1016.69 1016.59 1016.50 1016.43 1016.37 1016.30 1016.20 1016.08 1015.91 1015.69 1015.43 1015.13 1014.81 1014.50
1021.25 1021.31 1021.33 1021.32 1021.29 1021.26 1021.23 1021.20 1021.16 1021.10 1021.00 1020.86 1020.67 1020.44 1020.16 1019.85 1019.52 1019.17 1018.81 1018.46 1018.12 1017.80 1017.49 1017.20 1016.94 1016.69 1016.47 1016.28 1016.12 1016.00 1015.91 1015.86 1015.84 1015.84 1015.84 1015.82 1015.79 1015.71 1015.59 1015.41 1015.19 1014.93 1014.65 1014.36
1022.51 1022.51 1022.41 1022.26 1022.07 1021.87 1021.65 1021.44 1021.23 1021.02 1020.79 1020.54 1020.27 1019.97 1019.64 1019.29 1018.91 1018.52 1018.13 1017.73 1017.35 1016.98 1016.62 1016.29 1015.99 1015.73 1015.50 1015.32 1015.19 1015.10 1015.07 1015.07 1015.11 1015.16 1015.22 1015.27 1015.28 1015.26 1015.19 1015.06 1014.88 1014.66 1014.42 1014.16
1023.33 1023.22 1023.00 1022.71 1022.37 1022.01 1021.66 1021.31 1020.97 1020.65 1020.33 1020.01 1019.68 1019.34 1018.97 1018.59 1018.19 1017.77 1017.34 1016.92 1016.49 1016.09 1015.70 1015.35 1015.03 1014.76 1014.54 1014.37 1014.27 1014.22 1014.22 1014.27 1014.35 1014.45 1014.56 1014.65 1014.71 1014.73 1014.70 1014.62 1014.49 1014.31 1014.10 1013.88
1023.66 1023.43 1023.09 1022.68 1022.23 1021.76 1021.31 1020.87 1020.46 1020.08 1019.71 1019.35 1018.99 1018.63 1018.24 1017.84 1017.42 1016.98 1016.53 1016.08 1015.63 1015.20 1014.80 1014.43 1014.11 1013.84 1013.63 1013.48 1013.40 1013.38 1013.41 1013.49 1013.61 1013.74 1013.88 1014.00 1014.09 1014.15 1014.15 1014.11 1014.01 1013.88 1013.71 1013.52
1023.56 1023.21 1022.77 1022.27 1021.75 1021.23 1020.72 1020.25 1019.82 1019.41 1019.03 1018.66 1018.29 1017.91 1017.52 1017.10 1016.66 1016.20 1015.73 1015.26 1014.79 1014.35 1013.94 1013.57 1013.25 1013.00 1012.80 1012.68 1012.62 1012.62 1012.67 1012.77 1012.90 1013.05 1013.20 1013.34 1013.45 1013.52 1013.56 1013.54 1013.49 1013.39 1013.26 1013.10
1023.14 1022.69 1022.17 1021.62 1021.07 1020.54 1020.03 1019.57 1019.14 1018.74 1018.37 1018.00 1017.62 1017.23 1016.81 1016.37 1015.90 1015.42 1014.92 1014.43 1013.96 1013.51 1013.10 1012.74 1012.44 1012.20 1012.03 1011.93 1011.89 1011.91 1011.98 1012.09 1012.23 1012.38 1012.53 1012.68 1012.80 1012.89 1012.95 1012.97 1012.94 1012.89 1012.80 1012.68
1022.52 1022.00 1021.45 1020.88 1020.34 1019.82 1019.34 1018.90 1018.50 1018.11 1017.74 1017.36 1016.96 1016.54 1016.09 1015.61 1015.10 1014.58 1014.06 1013.55 1013.06 1012.62 1012.22 1011.88 1011.61 1011.40 1011.26 1011.19 1011.18 1011.22 1011.31 1011.42 1011.57 1011.72 1011.88 1012.03 1012.16 1012.27 1012.36 1012.41 1012.43 1012.41 1012.37 1012.30
1021.83 1021.27 1020.71 1020.16 1019.64 1019.15 1018.71 1018.29 1017.89 1017.50 1017.11 1016.70 1016.25 1015.78 1015.27 1014.73 1014.17 1013.61 1013.05 1012.52 1012.04 1011.60 1011.22 1010.92 1010.69 1010.53 1010.43 1010.41 1010.43 1010.50 1010.61 1010.75 1010.90 1011.07 1011.24 1011.40 1011.56 1011.69 1011.81 1011.90 1011.97 1012.01 1012.01 1011.99
1021.14 1020.57 1020.02 1019.49 1019.00 1018.54 1018.10 1017.68 1017.27 1016.84 1016.39 1015.91 1015.40 1014.84 1014.25 1013.64 1013.02 1012.41 1011.83 1011.29 1010.81 1010.40 1010.06 1009.81 1009.64 1009.54 1009.51 1009.54 1009.62 1009.73 1009.88 1010.05 1010.23 1010.43 1010.62 1010.81 1011.00 1011.17 1011.33 1011.47 1011.59 1011.68 1011.73 1011.76
1020.48 1019.92 1019.39 1018.88 1018.39 1017.92 1017.46 1017.00 1016.53 1016.03 1015.49 1014.91 1014.29 1013.64 1012.96 1012.27 1011.60 1010.95 1010.35 1009.82 1009.37 1009.01 1008.74 1008.56 1008.47 1008.45 1008.50 1008.61 1008.75 1008.93 1009.13 1009.35 1009.58 1009.81 1010.04 1010.27 1010.50 1010.72 1010.92 1011.11 1011.28 1011.42 1011.53 1011.60
Thickness
5405 5416 5419 5423 5430 5433 5435 5440 5443 5454 5459 5466 5467 5469 5470 5471 5472 5474 5476 5478 5480 5480 5481 5483 5484 5486 5488 5489 5490 5491 5491 5490 5490 5490 5490 5490 5489 5489 5489 5488 5488 5488 5488 5488
5397 5410 5414 5417 5423 5427 5432 5438 5440 5445 5449 5455 5454 5455 5456 5459 5462 5463 5464 5466 5467 5468 5469 5470 5471 5473 5475 5476 5478 5479 5479 5479 5479 5479 5479 5479 5479 5478 5478 5478 5478 5478 5478 5478
5382 5396 5402 5401 5413 5419 5424 5431 5436 5438 5443 5442 5443 5446 5446 5449 5451 5452 5453 5453 5454 5454 5455 5457 5459 5461 5462 5464 5465 5466 5466 5467 5467 5468 5468 5468 5469 5468 5467 5467 5467 5468 5468 5467
5369 5378 5377 5398 5408 5415 5418 5423 5426 5429 5430 5431 5431 5431 5432 5435 5438 5439 5441 5440 5440 5441 5442 5444 5446 5448 5450 5452 5453 5453 5454 5455 5455 5456 5457 5457 5457 5457 5457 5457 5457 5457 5457 5457
5359 5362 5372 5390 5398 5400 5403 5406 5412 5415 5416 5417 5417 5418 5417 5422 5425 5427 5427 5428 5428 5429 5431 5432 5433 5435 5437 5439 5440 5441 5442 5443 5444 5444 5445 5446 5445 5446 5446 5446 5447 5446 5447 5446
5348 5357 5365 5381 5389 5394 5397 5393 5399 5405 5406 5407 5409 5405 5404 5409 5412 5413 5414 5415 5416 5417 5419 5420 5421 5423 5425 5426 5427 5428 5430 5431 5432 5433 5433 5434 5435 5435 5435 5436 5436 5436 5436 5435
5340 5343 5354 5368 5378 5388 5382 5384 5390 5394 5396 5396 5398 5398 5397 5398 5399 5400 5401 5403 5404 5405 5406 5407 5409 5411 5412 5413 5414 5417 5419 5420 5421 5422 5422 5423 5424 5425 5425 5425 5425 5425 5425 5425
5331 5335 5346 5360 5366 5367 5369 5375 5379 5382 5384 5385 5385 5385 5386 5387 5387 5387 5388 5390 5392 5393 5394 5395 5397 5399 5400 5401 5403 5405 5407 5409 5410 5411 5412 5413 5414 5414 5415 5414 5414 5414 5414 5415
5331 5336 5341 5347 5352 5356 5360 5363 5366 5369 5371 5373 5373 5373 5375 5375 5375 5375 5377 5378 5380 5381 5382 5383 5384 5386 5387 5389 5392 5394 5396 5397 5398 5400 5401 5402 5403 5404 5404 5404 5404 5404 5404 5405
5326 5330 5333 5337 5341 5346 5350 5352 5355 5357 5359 5361 5361 5361 5362 5363 5363 5364 5366 5367 5368 5369 5370 5371 5373 5374 5376 5379 5381 5383 5384 5385 5387 5389 5390 5392 5393 5394 5394 5394 5394 5395 5395 5396
5318 5322 5327 5330 5331 5334 5338 5341 5343 5345 5347 5349 5350 5349 5350 5351 5352 5353 5355 5356 5357 5357 5359 5360 5362 5364 5366 5368 5370 5371 5373 5375 5376 5378 5380 5382 5383 5384 5385 5385 5386 5387 5387 5387
5310 5315 5317 5319 5321 5325 5327 5328 5330 5332 5334 5336 5338 5338 5339 5340 5341 5342 5343 5344 5345 5346 5348 5349 5351 5353 5355 5357 5359 5361 5363 5365 5366 5368 5370 5372 5373 5375 5376 5377 5379 5380 5380 5380
5304 5308 5308 5310 5311 5313 5315 5317 5319 5321 5322 5324 5325 5327 5328 5329 5330 5331 5332 5334 5335 5336 5337 5339 5340 5342 5345 5347 5349 5351 5353 5355 5357 5359 5361 5363 5364 5366 5367 5369 5370 5370 5371 5372
5295 5299 5300 5300 5300 5302 5304 5306 5309 5311 5312 5314 5315 5316 5318 5318 5319 5320 5322 5323 5325 5327 5328 5330 5332 5334 5336 5338 5340 5342 5344 5347 5349 5351 5352 5354 5355 5356 5357 5359 5360 5361 5362 5363
5286 5288 5289 5289 5290 5292 5294 5296 5299 5300 5302 5304 5305 5306 5307 5308 5309 5310 5312 5314 5316 5317 5319 5321 5323 5325 5327 5329 5332 5334 5336 5338 5340 5342 5344 5345 5346 5348 5349 5350 5351 5351 5352 5354
5277 5279 5280 5280 5281 5282 5284 5286 5288 5290 5292 5294 5295 5296 5297 5298 5299 5300 5302 5304 5306 5308 5310 5312 5314 5317 5319 5321 5324 5326 5328 5331 5333 5334 5335 5337 5338 5339 5340 5341 5342 5343 5344 5344
5269 5270 5270 5270 5272 5273 5275 5277 5279 5281 5282 5284 5286 5287 5288 5288 5290 5291 5293 5295 5297 5299 5302 5304 5306 5310 5312 5314 5316 5318 5320 5322 5325 5326 5327 5328 5329 5331 5332 5333 5334 5334 5335 5336
5261 5262 5262 5263 5264 5266 5267 5269 5270 5272 5273 5275 5277 5277 5278 5279 5280 5282 5284 5286 5288 5291 5294 5296 5300 5303 5305 5306 5308 5310 5312 5314 5316 5317 5319 5320 5321 5323 5324 5325 5326 5326 5326 5327
5255 5255 5256 5257 5258 5258 5259 5260 5262 5263 5265 5266 5268 5268 5269 5270 5271 5273 5275 5277 5280 5283 5286 5289 5293 5295 5296 5298 5301 5303 5304 5306 5308 5309 5311 5313 5314 5314 5316 5317 5318 5318 5319 5319
5248 5249 5249 5250 5251 5251 5252 5253 5254 5255 5256 5258 5259 5260 5261 5262 5263 5265 5267 5269 5272 5275 5279 5282 5285 5287 5289 5291 5294 5296 5297 5298 5300 5301 5303 5305 5306 5307 5308 5310 5311 5312 5313 5313
5240 5242 5243 5243 5244 5244 5245 5246 5247 5248 5249 5251 5252 5253 5254 5255 5256 5258 5260 5263 5266 5269 5273 5276 5278 5280 5282 5285 5287 5288 5290 5291 5293 5294 5296 5297 5299 5300 5302 5303 5305 5306 5307 5308
5233 5234 5235 5236 5237 5237 5238 5239 5240 5241 5243 5244 5245 5246 5247 5249 5250 5252 5254 5256 5260 5264 5266 5269 5271 5274 5277 5279 5280 5281 5282 5284 5286 5287 5289 5291 5292 5294 5295 5297 5299 5300 5302 5302
5227 5228 5229 5230 5230 5231 5232 5233 5234 5235 5236 5238 5239 5240 5241 5243 5245 5247 5249 5252 5254 5258 5260 5262 5265 5269 5272 5272 5273 5274 5276 5277 5279 5281 5283 5284 5286 5288 5290 5292 5293 5295 5296 5297
5222 5223 5224 5224 5225 5226 5227 5228 5229 5231 5231 5232 5234 5235 5236 5238 5240 5242 5244 5247 5249 5252 5254 5256 5260 5263 5265 5265 5266 5268 5269 5271 5273 5275 5277 5279 5281 5283 5285 5286 5288 5289 5291 5292
5216 5217 5218 5219 5221 5222 5223 5224 5225 5226 5227 5228 5230 5231 5232 5234 5235 5237 5239 5240 5243 5246 5247 5250 5254 5256 5257 5258 5260 5262 5264 5266 5268 5270 5271 5273 5276 5278 5280 5282 5283 5285 5286 5288
5211 5212 5213 5215 5216 5217 5218 5219 5221 5222 5223 5225 5226 5228 5229 5230 5231 5232 5234 5236 5237 5240 5242 5244 5247 5250 5251 5253 5255 5257 5259 5261 5263 5265 5267 5269 5271 5273 5275 5277 5279 5281 5283 5285
5208 5208 5209 5211 5212 5213 5214 5215 5217 5218 5219 5220 5222 5224 5225 5226 5227 5228 5230 5232 5233 5235 5238 5240 5243 5245 5247 5249 5251 5253 5255 5257 5259 5261 5263 5265 5267 5270 5272 5274 5276 5278 5280 5283